Wind_Speed
16 15 14 13 14 14 16 17 17 20 25 30 33 35 35 36 37 36 36 39 39 39 40 39 38 38 39 39 39 38 38 38 36 35 34 34 33 33 34 33 32 31 31 32 31 29 29 31 30 28 26 24 22 20 19 20 20 19 19 16 14 18 19
15 13 13 13 14 14 16 17 17 21 26 29 33 35 35 36 37 37 37 39 40 40 40 40 40 39 39 39 39 39 39 38 37 35 35 35 34 33 34 35 34 33 33 32 30 29 30 32 30 29 29 26 23 22 21 21 21 20 20 18 16 19 20
14 13 13 13 14 14 15 16 17 21 26 29 32 34 36 38 39 39 39 39 40 40 40 41 41 40 40 39 39 39 40 39 37 37 36 36 34 33 34 35 35 34 34 33 32 31 31 31 31 31 31 28 25 24 23 23 23 22 21 21 19 20 20
15 15 15 14 14 14 15 16 17 21 26 30 34 36 38 39 40 40 39 40 40 40 40 42 42 41 40 39 39 39 40 39 38 38 37 36 35 33 33 35 35 34 33 34 33 33 32 31 31 33 32 28 26 26 25 24 25 24 23 23 23 22 21
17 16 14 14 14 13 13 15 17 21 26 30 34 37 37 38 38 38 39 40 42 42 43 43 41 40 39 39 39 39 41 41 39 38 38 36 35 34 34 35 35 34 34 34 34 34 34 32 32 33 33 30 27 27 27 26 27 26 25 25 25 24 23
16 15 14 14 15 14 15 17 18 24 28 29 32 34 35 36 37 37 38 39 41 42 42 41 40 39 38 39 40 39 40 41 39 38 38 37 36 35 35 35 35 35 34 34 35 35 36 34 34 34 33 32 30 29 29 29 29 29 28 27 26 25 25
16 15 16 16 16 15 16 17 18 25 30 30 31 32 34 36 36 36 37 38 40 40 40 40 40 40 39 40 40 39 40 40 40 39 38 37 37 37 35 35 36 36 35 35 35 36 37 37 36 35 34 33 32 31 31 31 31 31 30 29 27 26 25
19 17 18 17 16 15 15 15 16 21 26 28 30 32 35 36 35 36 36 37 38 39 40 40 40 40 40 40 40 40 41 40 40 39 38 37 37 37 36 35 36 36 36 36 36 36 38 39 38 37 36 35 35 34 33 33 33 32 31 31 29 28 26
20 19 19 17 17 15 14 14 14 17 22 26 29 32 34 35 35 36 36 36 37 38 39 39 39 40 40 40 40 41 40 39 39 39 38 38 38 37 37 36 36 36 37 38 37 36 38 40 40 39 37 37 37 36 35 35 34 33 33 33 32 29 28
19 17 17 17 16 14 13 13 13 14 17 20 25 29 33 35 36 36 36 36 37 37 38 38 38 39 40 40 40 39 39 39 39 39 39 39 38 38 38 37 37 37 38 38 38 37 38 39 40 40 39 39 38 37 36 36 35 35 34 33 31 30 29
17 16 16 15 14 13 12 13 13 13 14 17 22 28 32 34 35 35 36 37 37 36 37 38 38 38 39 40 39 38 38 39 40 40 40 40 39 38 38 38 38 38 38 38 38 38 38 39 40 41 41 40 40 39 38 37 36 35 33 31 31 30 30
16 15 13 14 14 13 13 14 15 15 15 17 23 27 29 32 33 34 36 37 37 36 36 38 38 38 39 39 39 38 39 40 40 41 41 41 40 39 39 39 39 39 39 39 39 39 40 41 42 42 42 42 41 40 39 37 36 34 31 30 31 31 31
16 13 12 14 15 14 13 14 15 17 16 17 23 26 28 31 33 34 35 37 38 37 36 37 38 38 39 39 39 39 40 41 42 42 41 41 41 41 41 40 39 39 40 40 39 39 41 42 42 43 42 41 40 40 39 37 35 33 32 31 33 32 32
18 16 15 15 15 14 13 13 14 16 14 15 20 25 27 30 34 35 36 37 38 37 37 37 38 39 38 39 40 40 42 43 42 42 41 42 42 41 40 40 40 40 40 40 39 39 41 42 42 42 41 40 39 39 38 37 34 34 35 36 36 35 34
15 16 15 15 15 14 14 13 14 14 13 14 17 22 25 28 32 34 35 37 38 38 38 38 39 39 38 39 40 41 43 43 42 41 41 41 41 41 41 41 40 40 40 40 40 39 39 40 41 40 39 38 38 37 37 36 35 36 39 39 38 37 36
12 13 14 14 14 14 14 15 15 14 13 13 15 20 23 26 29 32 34 35 37 38 39 38 38 39 38 39 40 41 42 42 41 41 41 41 41 42 42 41 40 39 39 40 40 39 38 38 39 39 38 37 37 37 37 36 35 38 41 40 39 39 37
12 10 10 10 10 11 12 12 13 13 13 14 17 21 24 26 30 33 34 35 36 38 40 39 39 39 39 39 40 40 40 41 41 41 41 42 42 42 41 40 39 38 37 39 40 39 37 37 37 38 38 37 37 37 37 35 35 39 42 41 39 39 37
14 13 11 11 11 12 13 13 13 13 14 15 18 23 27 29 30 31 33 36 38 40 40 39 39 40 41 40 39 39 40 40 40 40 41 41 41 40 40 38 37 36 36 37 39 38 37 36 37 38 37 36 37 37 36 35 35 38 41 42 40 38 35
13 15 16 14 14 15 16 15 14 14 15 16 19 25 32 34 32 32 36 39 40 39 39 39 39 40 41 40 39 41 41 40 40 40 40 40 39 38 37 36 36 36 36 36 37 37 36 36 36 36 36 37 37 36 35 34 34 36 39 40 40 38 34
10 12 14 15 16 16 15 14 13 14 17 21 26 32 36 36 36 38 41 41 39 38 39 39 38 39 40 40 40 41 41 39 40 39 38 38 37 35 35 35 35 35 33 33 35 36 36 35 34 35 36 37 36 36 35 33 34 35 36 38 40 38 32
8 8 10 12 13 15 15 15 14 13 15 22 28 31 32 33 36 38 37 36 36 37 39 39 37 36 38 39 39 40 40 39 38 37 36 36 35 34 34 34 34 33 31 30 33 35 34 33 33 34 35 35 35 34 33 32 33 33 35 37 36 31 27
7 8 9 10 11 12 13 14 15 16 19 24 28 28 28 31 34 33 32 34 36 36 37 37 35 34 36 37 38 38 38 38 36 35 34 34 33 33 32 32 32 31 29 27 28 31 32 32 33 34 33 33 32 31 30 30 31 31 32 34 32 28 27
7 6 7 9 10 13 16 19 21 23 25 27 27 27 29 32 33 31 29 31 33 33 33 33 32 32 34 35 36 37 37 37 36 34 33 33 32 31 31 31 31 30 28 26 26 29 31 30 31 32 32 31 30 29 28 28 28 28 30 34 37 35 33
8 8 8 8 9 12 16 21 24 26 28 27 27 30 32 32 32 31 28 29 31 30 30 29 29 31 33 34 35 36 36 37 36 35 33 33 32 30 29 29 30 30 29 27 27 29 31 30 29 29 30 30 30 30 30 29 29 30 33 39 43 40 36
8 7 6 6 7 9 15 23 27 28 27 25 25 30 32 32 32 30 26 28 30 29 27 26 28 31 33 34 35 36 36 37 36 34 33 32 31 30 29 29 30 30 30 29 28 29 30 30 29 27 27 28 29 30 31 30 30 32 36 42 42 36 32
10 9 7 7 11 12 15 24 26 22 21 22 27 33 34 32 31 28 27 28 27 26 26 27 28 30 32 33 34 35 35 35 35 34 33 32 31 31 31 30 29 29 29 27 25 25 27 28 28 26 24 24 26 28 30 31 31 33 37 40 38 32 30
11 10 7 7 12 16 15 18 20 19 21 25 30 34 36 34 29 25 26 26 24 24 26 27 28 31 32 33 34 35 35 35 35 35 34 34 33 32 31 30 28 27 27 25 23 23 24 25 24 23 22 23 25 27 29 30 30 32 35 35 31 29 32
14 12 10 13 19 21 16 11 12 17 25 31 34 34 34 32 27 24 23 22 22 24 26 29 32 34 34 34 34 35 35 35 35 35 33 33 33 31 29 28 27 26 27 26 24 23 24 24 24 23 23 23 24 26 27 26 26 29 32 31 28 30 34
13 13 10 12 16 19 17 11 6 2 5 16 24 28 29 26 21 19 20 19 20 25 29 32 34 35 35 34 34 34 35 34 34 33 32 32 32 31 30 28 26 26 26 26 24 24 25 25 25 25 24 23 23 24 25 25 26 26 28 29 28 31 33
12 12 11 9 9 14 16 12 11 16 19 18 12 3 14 24 24 19 18 19 24 29 32 33 35 35 34 34 33 33 33 32 32 31 31 31 31 29 28 27 24 24 26 26 26 25 25 25 25 26 25 23 23 23 24 26 28 27 28 30 31 31 30
12 12 12 11 10 12 14 13 12 15 18 21 20 16 9 8 17 18 17 22 31 35 34 34 34 34 33 33 32 32 32 30 29 28 28 29 28 26 26 25 24 24 26 27 26 25 24 24 24 25 25 24 23 24 25 27 28 29 30 32 30 27 27
13 14 14 13 13 11 12 14 14 13 11 12 11 5 4 2 5 12 19 28 34 36 35 35 34 32 31 31 31 31 31 29 26 26 25 25 24 23 22 23 22 22 23 24 24 23 24 24 23 23 23 23 23 25 26 27 30 31 32 32 28 25 27
13 14 15 16 16 12 11 11 9 8 8 9 11 13 14 12 9 12 22 31 36 38 38 36 34 31 30 30 30 30 30 27 26 25 25 23 22 21 20 21 22 22 21 22 22 22 22 23 22 22 22 22 23 25 27 28 30 32 32 31 28 26 29
12 12 14 17 19 16 11 9 7 6 7 8 10 13 18 19 13 11 17 24 31 37 38 33 31 31 29 29 29 28 27 27 27 27 26 24 24 22 20 20 21 21 20 21 21 21 22 21 22 23 23 23 24 24 24 26 28 30 30 29 28 29 31
9 10 11 14 17 17 12 10 9 9 9 11 12 12 16 19 16 13 15 18 22 30 33 31 30 30 28 28 28 27 27 28 29 29 29 27 25 22 19 17 18 19 18 18 19 21 22 22 22 23 24 25 25 24 22 23 27 29 29 28 29 30 30
7 7 9 12 13 14 14 14 14 14 13 16 17 15 13 16 14 11 15 20 23 27 31 31 29 28 27 26 26 26 28 29 29 29 29 27 25 23 20 17 16 15 15 15 16 18 19 20 20 22 23 24 26 26 24 24 27 29 29 28 28 29 29
8 6 9 13 14 13 13 14 16 18 16 17 16 10 6 11 17 16 18 22 24 28 31 30 28 25 23 24 25 26 27 27 27 27 27 26 25 24 22 19 16 14 13 14 14 14 15 16 17 18 20 22 24 26 25 25 26 27 27 27 27 27 25
14 11 12 15 13 10 9 9 12 16 13 11 7 2 3 12 23 24 23 24 25 27 29 28 26 24 23 24 27 28 28 27 27 27 26 24 23 23 22 21 19 16 14 13 13 13 14 14 14 16 17 19 22 24 25 25 24 25 27 27 25 23 20
Wind_Direction
186 187 185 185 183 181 183 182 180 178 178 180 184 184 182 183 184 184 185 187 189 191 194 196 196 197 198 198 197 198 199 201 200 200 199 199 199 197 196 196 193 189 188 190 191 192 192 190 191 194 196 197 197 200 204 203 203 201 198 200 202 199 200
186 188 184 182 183 181 182 183 180 178 180 181 183 183 183 183 183 184 186 187 190 192 194 196 197 198 198 198 199 199 200 201 201 200 199 200 200 199 198 197 195 194 194 195 194 194 193 194 196 196 196 197 198 200 204 203 204 207 203 201 200 197 198
185 185 182 180 181 181 180 182 182 181 180 181 183 184 185 185 185 185 186 187 189 192 194 196 198 199 199 199 199 200 201 202 201 200 200 200 200 200 199 197 196 197 197 198 197 196 195 195 197 197 196 198 200 201 204 203 204 207 205 202 199 195 198
184 184 182 180 181 182 179 181 184 182 181 182 184 185 186 187 186 185 186 187 188 191 194 197 199 199 199 199 199 200 201 201 201 201 200 200 200 199 198 197 197 197 197 199 199 197 196 196 197 197 197 200 202 203 204 204 204 206 206 205 204 201 200
182 181 182 182 185 185 181 182 185 184 184 183 184 186 187 186 186 185 186 188 189 192 196 198 199 199 200 199 200 201 201 201 201 201 201 201 200 199 198 197 196 196 197 198 199 198 196 196 196 196 198 201 204 204 203 205 206 206 205 206 207 206 205
183 181 184 187 189 190 187 186 185 184 184 183 183 185 185 185 186 187 187 188 190 194 196 198 198 198 199 200 201 202 201 201 201 201 201 201 200 200 199 198 197 197 197 197 199 198 197 196 197 197 199 202 204 203 203 204 207 207 206 207 208 208 208
185 185 189 191 190 190 189 187 185 184 183 180 179 181 183 187 188 188 189 189 191 193 195 196 197 198 199 200 201 202 201 201 200 200 200 200 201 201 200 199 199 198 198 198 199 199 198 197 197 199 201 202 203 204 203 204 206 208 208 207 209 211 210
185 187 191 193 190 188 188 187 184 182 181 176 175 180 184 187 188 189 190 191 192 193 195 196 197 198 199 200 201 202 202 200 200 200 200 200 202 202 201 200 199 199 199 199 199 200 199 198 197 199 202 202 203 204 204 204 205 207 208 208 209 212 211
186 189 191 188 187 188 186 184 181 180 180 178 177 180 183 185 187 191 191 191 193 196 196 197 197 198 199 200 202 203 202 200 200 200 200 201 202 203 202 202 201 200 200 201 201 201 200 199 198 200 203 203 204 204 203 203 204 206 207 207 208 209 211
185 189 190 185 184 187 182 176 176 178 182 183 180 180 182 185 188 189 190 193 196 198 198 197 198 199 200 201 203 203 201 200 200 200 200 201 202 203 203 203 203 201 202 202 202 202 201 200 200 202 204 204 204 204 203 203 204 205 206 207 208 210 211
182 186 187 184 179 176 174 173 178 182 185 186 183 181 182 185 186 187 190 194 196 198 198 198 199 199 200 202 203 203 202 201 201 200 201 201 202 203 203 204 204 203 203 202 202 202 202 201 201 204 205 205 204 204 204 204 204 204 204 205 208 212 215
182 184 178 176 172 171 173 176 181 184 185 186 185 183 182 183 184 187 191 194 197 198 198 198 199 199 200 202 203 203 203 203 202 201 201 202 202 203 203 204 204 204 204 203 202 202 203 202 203 205 207 207 206 205 205 204 203 201 201 204 208 213 218
179 177 172 173 174 174 171 174 181 184 185 187 186 184 182 182 184 186 190 194 196 197 197 198 199 200 201 202 202 203 204 204 203 202 202 202 203 204 204 204 205 205 205 205 203 203 203 204 205 206 208 208 207 207 206 204 200 196 198 204 208 211 216
178 175 174 175 177 175 169 170 180 183 185 186 185 184 183 183 185 187 189 193 195 196 196 197 198 199 200 201 202 203 205 205 204 203 202 203 204 204 205 205 205 205 206 205 205 205 205 205 205 207 208 209 208 207 206 203 198 192 195 205 210 210 213
174 175 173 175 176 176 174 176 181 185 184 183 182 183 183 185 187 188 190 193 193 195 196 196 197 199 199 201 203 204 204 205 204 203 203 203 204 205 206 206 206 206 206 205 206 207 207 207 207 206 207 208 208 207 205 203 197 192 196 205 209 210 212
169 174 173 177 181 181 180 182 184 187 184 179 181 183 184 186 188 189 191 193 193 195 196 196 196 198 199 201 203 204 204 204 203 203 203 203 204 205 206 206 206 205 205 206 206 207 208 208 207 207 207 207 206 206 205 203 198 195 199 205 208 209 211
158 163 165 170 179 186 189 189 190 190 186 183 184 183 184 187 189 191 192 192 194 196 196 196 196 198 200 202 203 203 203 203 202 202 203 203 204 205 205 205 205 204 204 205 206 207 207 207 207 207 208 207 206 207 206 203 200 198 202 206 209 210 210
152 156 166 173 178 185 189 192 193 192 190 191 188 184 186 189 189 191 193 194 196 196 195 196 197 198 200 201 200 200 201 201 201 201 202 203 204 204 204 203 202 203 203 203 204 205 205 205 207 207 207 207 207 207 206 204 202 202 204 206 209 212 211
164 165 173 178 183 188 190 190 189 188 190 192 189 187 190 190 189 191 195 197 197 195 194 196 197 198 200 200 198 198 200 199 199 200 202 202 203 203 202 201 201 202 202 202 202 202 203 205 206 206 206 207 206 207 207 205 203 205 205 206 210 214 213
177 180 184 185 186 189 191 191 191 191 192 191 191 193 194 192 191 195 198 197 196 194 194 197 198 197 197 197 196 197 198 197 197 198 199 200 201 200 200 200 200 201 201 201 200 200 202 204 204 203 204 205 205 206 207 206 206 206 206 207 210 212 212
181 179 188 197 197 193 193 193 195 196 194 192 194 195 194 193 194 196 197 195 194 194 195 196 197 196 195 195 195 195 194 194 194 195 196 196 196 197 197 198 198 199 199 200 200 201 202 202 202 202 202 202 204 205 206 208 208 206 207 208 207 208 215
201 184 181 190 200 202 199 197 197 197 196 196 197 196 193 195 197 195 194 193 193 195 196 196 196 195 194 193 192 191 190 190 189 189 190 190 190 191 192 193 194 196 196 199 200 199 200 202 201 201 200 200 202 202 204 209 209 207 207 205 199 202 217
208 207 195 186 191 199 202 202 201 200 198 197 196 195 195 196 196 192 191 192 194 194 194 194 195 194 191 190 189 188 186 184 183 182 182 182 183 184 186 188 190 192 194 197 196 195 198 199 199 200 200 198 198 199 202 206 208 206 203 199 196 199 212
237 233 224 203 189 190 197 202 204 204 201 198 196 197 197 195 192 190 189 191 193 194 192 192 194 191 187 185 184 182 180 178 177 176 176 176 177 178 180 184 187 190 194 196 195 195 196 196 196 199 199 197 197 198 200 203 206 205 201 199 199 202 212
295 280 270 248 231 214 200 199 204 207 203 198 197 198 197 194 190 188 189 192 192 192 191 191 189 185 181 179 177 174 173 172 171 171 170 171 174 176 180 184 188 191 195 197 197 196 196 196 195 195 195 196 196 197 200 203 204 203 200 198 201 207 215
324 315 314 289 275 266 223 200 200 205 202 197 197 197 195 193 191 188 190 192 190 190 192 189 183 177 173 169 166 165 165 165 165 165 166 169 174 179 183 185 188 191 194 196 197 195 194 197 198 195 194 194 193 195 200 203 201 198 197 200 205 211 213
327 313 321 332 323 309 271 220 200 195 196 197 198 197 194 190 189 189 190 188 187 191 190 181 170 165 162 159 159 158 158 159 161 164 168 173 176 179 182 184 185 187 190 191 192 191 190 192 193 190 189 189 189 193 199 201 196 191 195 204 210 208 205
346 333 351 20 17 359 329 274 214 194 197 199 198 198 195 189 185 184 183 183 186 187 178 166 160 158 155 155 155 154 154 157 162 166 170 173 175 176 178 181 183 185 186 186 186 185 183 181 180 178 177 178 184 189 193 194 192 191 197 206 207 201 201
352 339 357 34 41 36 26 6 355 1 213 208 204 198 188 179 175 175 178 180 179 172 162 156 154 153 150 150 151 151 155 160 163 166 167 169 172 173 175 178 182 183 183 182 180 176 172 172 173 170 167 167 174 182 185 186 190 197 201 201 198 197 200
358 345 350 8 37 59 63 52 27 24 25 20 3 292 186 176 173 171 172 170 161 155 153 151 149 147 145 146 147 149 154 158 161 164 166 168 170 171 172 177 181 180 178 176 173 168 165 166 167 165 162 162 167 176 183 186 192 199 200 194 192 198 202
5 352 348 353 7 41 70 81 69 52 44 39 25 0 329 203 177 165 156 153 150 148 148 147 144 142 141 142 143 147 150 152 155 160 164 167 168 167 169 173 174 170 170 170 167 165 164 164 166 166 166 166 167 173 182 188 193 196 195 192 195 205 207
12 2 359 355 354 16 55 75 79 76 68 72 84 76 9 18 149 148 144 146 146 145 144 142 140 137 137 138 140 143 146 146 147 153 158 162 164 164 164 165 162 159 161 162 162 164 166 168 169 168 167 167 169 173 179 184 189 191 191 196 207 214 208
17 11 11 2 351 8 48 61 66 81 82 79 99 124 135 138 147 149 146 144 142 140 140 139 137 135 135 135 136 139 143 143 141 142 146 149 151 151 151 156 157 154 156 161 162 163 166 168 169 167 163 162 164 171 177 183 188 193 198 205 213 210 201
21 15 17 13 1 6 40 63 60 70 86 84 87 105 121 125 121 122 131 136 138 138 137 135 133 132 131 131 132 135 138 137 134 133 132 132 133 133 134 144 153 153 154 162 167 167 167 167 167 168 167 164 163 165 170 177 186 195 201 205 204 200 198
25 16 21 26 12 4 18 35 37 40 48 51 56 73 97 105 107 112 120 127 132 131 128 127 125 125 125 127 129 129 130 129 130 130 128 125 125 122 119 129 144 150 154 162 171 174 173 171 170 171 171 171 169 166 165 172 183 191 195 197 197 199 202
18 14 18 22 11 3 6 16 33 43 34 27 33 39 58 79 90 100 110 118 122 120 119 119 118 118 122 125 125 126 126 126 127 129 129 128 126 123 117 119 133 146 153 158 167 175 179 181 180 177 176 176 176 176 180 186 189 190 192 196 200 203 206
12 23 30 19 7 3 2 12 40 50 31 19 29 29 42 89 102 108 111 116 119 118 118 119 118 118 121 122 123 125 125 124 125 127 129 131 131 129 123 117 118 128 139 148 155 163 174 183 186 185 187 189 185 184 191 197 194 192 197 202 204 205 211
12 21 43 38 20 6 358 15 58 72 60 42 37 285 214 114 112 117 119 120 121 121 122 123 123 122 120 120 123 127 127 127 129 131 132 132 132 132 130 123 115 110 114 129 143 152 159 167 172 178 189 198 196 191 192 195 196 199 203 205 205 208 217
Height
689 691 693 695 697 699 701 702 705 709 713 717 721 725 729 733 737 741 745 748 752 755 759 763 766 769 771 773 775 777 779 780 782 785 787 789 791 793 795 797 799 801 802 804 806 808 810 812 814 816 817 819 819 821 822 824 825 826 827 828 829 830 830
686 688 689 691 693 695 696 697 700 704 708 712 716 720 724 728 732 736 740 744 747 751 755 758 761 764 767 769 772 773 775 776 779 782 784 786 788 790 792 795 796 798 800 802 804 806 808 810 812 813 815 816 817 818 820 822 823 824 825 826 827 828 829
683 685 685 687 688 690 692 693 696 699 703 707 711 715 718 722 726 730 735 739 743 747 751 754 757 760 763 766 768 770 771 773 775 778 780 782 785 788 790 792 794 795 798 799 802 804 806 807 809 810 812 813 815 816 818 819 821 822 823 824 825 826 827
679 679 679 682 683 685 688 689 692 694 698 702 705 709 713 717 722 726 731 735 739 743 746 749 752 756 759 762 764 766 767 769 772 774 777 779 782 785 787 789 791 793 795 797 799 801 803 805 806 808 809 811 812 813 815 817 818 819 820 821 823 824 825
674 674 676 679 680 682 684 685 688 690 693 697 701 705 710 715 720 723 727 730 733 737 740 744 749 753 757 759 760 762 763 766 769 771 774 776 779 782 784 786 788 790 792 794 796 798 800 802 803 805 807 808 809 810 812 814 816 817 818 819 820 821 823
671 672 673 675 675 677 678 680 682 684 689 693 698 703 708 713 717 720 723 726 729 733 737 741 746 749 753 755 756 758 760 763 765 768 771 773 776 779 780 783 785 787 790 791 793 795 797 799 800 801 803 804 806 808 809 811 812 814 815 817 818 819 821
665 667 667 668 668 670 672 674 676 679 684 689 694 701 705 709 713 717 720 723 725 729 733 737 741 745 748 750 753 755 757 759 762 765 768 770 773 775 777 780 782 784 787 788 790 791 793 795 796 798 799 801 803 804 805 807 809 811 813 815 816 817 819
656 659 660 661 662 665 668 670 673 677 680 685 690 695 699 704 709 713 716 719 722 725 729 733 737 741 744 746 749 751 753 756 759 762 765 767 770 772 775 777 779 781 784 785 787 788 789 791 793 795 796 797 799 800 802 803 806 809 811 813 814 816 817
648 651 652 654 657 660 663 666 670 675 678 681 684 687 693 699 703 708 711 715 719 721 724 729 733 737 740 743 745 747 750 753 756 758 761 764 766 769 771 774 776 778 780 781 783 785 786 788 789 791 792 793 795 796 798 801 803 805 807 809 811 813 815
645 649 649 650 653 656 659 664 668 673 677 678 680 683 688 692 697 702 707 711 714 717 721 726 730 734 737 739 742 745 748 750 752 755 758 760 762 765 767 770 772 774 776 778 780 781 783 785 786 788 789 789 791 793 795 798 800 802 805 808 811 813 815
644 647 649 650 653 655 659 664 668 671 673 674 676 679 682 686 692 696 701 705 708 713 718 723 727 730 733 736 739 742 744 746 749 751 753 755 758 761 764 766 768 770 772 774 776 778 779 781 782 783 784 785 787 790 792 794 797 800 804 808 811 812 814
642 644 649 651 652 655 659 662 665 667 668 670 672 675 678 682 687 691 695 699 704 709 714 718 722 726 729 732 735 738 740 742 744 746 749 751 754 757 760 762 764 766 768 770 772 774 775 776 778 779 780 782 784 786 789 792 795 799 804 808 809 810 812
639 642 647 648 649 653 656 659 661 662 664 666 667 671 674 678 682 687 691 694 698 704 709 713 718 721 724 728 730 733 735 737 739 741 744 747 750 752 755 757 760 761 763 766 768 769 770 772 774 775 777 779 781 784 787 790 793 798 803 806 806 806 807
637 640 643 644 647 651 654 657 659 659 661 663 665 668 671 675 679 681 685 689 693 698 703 707 712 715 719 722 725 727 729 731 734 737 740 743 746 748 751 753 755 757 759 762 763 765 766 768 770 772 774 777 779 781 784 787 791 795 798 799 800 800 801
639 641 643 645 647 649 650 653 655 657 659 660 662 666 669 672 675 678 681 685 688 693 697 701 706 710 714 717 719 721 723 727 731 733 737 739 742 744 746 748 751 753 755 758 759 761 763 765 767 770 772 774 776 779 782 785 788 790 791 792 793 795 795
642 643 644 645 645 645 646 648 650 652 655 657 659 662 665 668 671 674 677 680 684 688 692 696 701 704 708 711 713 716 719 723 726 729 732 735 737 739 741 744 747 749 752 754 756 758 760 763 765 767 768 771 773 776 778 781 784 785 786 786 788 790 792
640 643 644 644 644 645 645 646 647 649 651 653 654 656 660 663 666 669 672 675 679 682 686 690 694 698 702 704 707 712 716 718 721 724 727 729 731 734 737 740 743 746 748 750 753 755 757 760 761 763 765 768 770 773 775 778 781 782 782 784 786 788 789
636 639 641 641 642 643 644 645 646 647 648 648 648 651 654 657 661 664 667 670 672 675 680 685 687 691 695 698 703 708 710 713 716 719 722 724 727 730 733 737 740 743 745 747 749 752 754 756 757 759 763 765 767 770 773 776 779 779 780 783 785 786 787
633 633 633 635 637 638 639 639 640 641 642 642 644 646 648 650 655 659 660 663 666 670 676 679 681 685 689 693 698 701 704 708 711 714 717 720 724 727 730 734 737 739 741 743 746 749 750 752 754 757 760 762 764 767 770 773 776 777 779 781 782 784 786
630 629 628 629 629 631 632 633 634 634 634 636 639 640 642 645 648 651 653 657 662 666 670 673 675 679 682 687 691 695 699 703 706 710 713 717 721 725 727 731 733 735 738 740 743 745 747 749 751 753 756 758 760 764 767 770 772 774 776 778 780 784 789
624 625 627 627 626 626 626 627 629 630 630 632 634 635 639 642 644 646 650 654 658 662 664 667 670 673 677 681 685 689 694 698 702 706 710 714 718 721 724 727 730 733 736 737 739 742 744 746 749 750 753 755 758 762 765 767 769 771 774 777 782 790 795
619 620 622 622 623 624 623 623 624 625 626 627 630 633 636 638 640 644 647 650 654 657 659 663 666 669 672 676 680 684 689 693 698 703 707 711 714 718 721 724 727 731 733 735 738 740 742 744 746 748 751 754 757 760 763 765 766 769 773 778 785 792 794
613 614 615 615 617 617 618 619 620 620 621 623 626 629 631 634 637 640 643 647 650 653 656 659 662 664 668 672 676 680 685 689 695 699 703 708 711 714 718 721 725 728 731 733 735 737 739 741 743 746 749 752 755 758 760 762 764 768 772 776 778 781 784
606 608 609 610 612 613 614 616 617 617 618 619 621 624 626 629 633 636 639 642 645 649 652 655 657 660 663 668 672 677 681 686 691 696 700 704 708 712 716 719 723 726 728 730 731 733 735 737 740 743 745 748 752 754 756 759 761 764 767 769 770 772 777
605 605 605 605 608 610 610 611 612 614 615 616 618 620 623 626 629 631 635 637 640 645 648 651 654 656 659 664 668 673 678 683 688 693 698 702 707 710 714 717 720 722 725 727 728 730 732 734 736 739 742 745 748 750 753 755 757 760 763 765 767 771 775
611 608 606 604 603 604 605 606 607 609 611 613 614 616 619 623 625 627 630 633 637 641 644 647 650 653 658 663 667 672 677 681 686 691 696 701 705 708 712 714 717 720 723 725 727 729 732 734 736 738 740 743 746 748 750 752 755 758 761 764 767 770 772
615 609 606 603 601 600 600 601 602 603 606 609 611 613 615 617 621 624 627 630 634 638 641 645 649 653 657 662 666 671 675 679 685 690 694 699 702 706 709 712 715 718 721 724 727 729 731 734 736 738 740 742 744 746 748 750 753 757 760 763 765 768 770
618 613 607 603 601 602 601 600 599 600 602 603 606 609 611 613 616 620 624 628 631 635 640 644 648 652 656 661 666 670 674 679 684 689 693 697 701 704 708 711 714 716 719 722 725 727 729 732 734 736 738 740 742 744 746 749 753 756 759 761 763 765 768
623 619 612 605 604 605 606 608 608 606 605 605 606 607 609 612 616 619 623 627 630 634 639 643 647 651 655 660 666 670 674 680 684 688 692 696 699 703 706 709 713 715 717 720 722 725 728 730 732 734 736 739 741 743 746 749 752 754 757 759 761 764 767
625 624 618 612 609 605 606 612 614 612 612 612 614 615 614 614 616 619 622 625 628 633 638 643 647 651 655 660 665 670 675 680 684 688 692 695 698 702 705 708 712 714 715 718 720 723 726 728 731 733 735 737 740 742 745 748 751 753 755 757 760 763 765
628 627 624 620 616 610 608 611 613 614 615 615 619 626 628 624 620 619 621 624 627 631 637 643 647 650 655 660 665 670 675 680 684 689 692 696 698 701 705 708 711 712 714 717 719 722 725 727 730 732 733 736 738 741 744 747 749 752 755 757 760 762 764
631 630 628 626 622 617 613 612 612 614 616 617 620 627 633 633 630 626 624 624 626 629 635 642 647 651 655 660 664 669 675 680 685 690 693 697 700 702 705 708 710 713 715 717 719 722 724 727 729 730 732 734 737 740 743 745 748 751 754 756 759 761 763
637 634 633 632 630 625 619 617 617 617 618 620 621 623 627 631 633 632 628 625 625 628 634 641 646 650 656 660 664 670 676 682 686 690 694 698 701 703 706 709 711 713 716 718 720 722 724 726 728 729 731 733 735 738 741 744 747 750 752 755 757 759 762
641 639 637 636 635 633 627 623 622 622 621 621 623 623 624 627 631 633 633 630 629 629 634 641 646 651 657 662 667 673 678 683 686 689 693 697 700 703 706 708 710 712 714 717 719 721 723 725 727 728 729 731 734 737 739 742 745 747 750 752 754 757 760
642 641 639 636 637 638 635 631 629 628 627 627 627 627 627 628 632 636 638 638 637 635 638 643 648 654 660 665 670 676 680 683 687 690 693 696 700 703 707 709 711 713 714 716 719 720 722 724 725 727 729 731 733 736 738 741 743 745 748 750 753 756 758
644 642 640 638 638 639 639 637 634 634 635 634 633 633 633 633 636 640 642 642 642 642 644 647 652 659 665 669 674 678 681 684 688 691 693 697 700 703 707 710 713 714 716 718 719 721 722 723 725 727 729 731 733 735 737 740 742 745 748 750 752 755 757
648 644 641 641 641 642 643 641 638 638 640 641 640 641 642 641 641 644 646 647 647 648 650 652 657 664 669 673 677 680 683 686 689 691 695 698 701 703 707 710 713 716 717 719 720 721 723 723 724 726 728 730 732 735 737 740 742 745 747 749 751 754 756
653 649 643 642 645 650 653 649 643 641 643 646 647 648 647 645 643 645 649 651 653 655 656 658 662 667 671 675 679 682 684 687 689 692 695 698 701 704 706 710 713 716 718 719 720 722 723 724 724 726 728 730 732 734 737 739 741 744 746 748 750 753 755